Regional Weather Roundup
Issued by NWS Midland/Odessa, TX

Skip options and go directly to product.
Home | Oldest Version | Previous Version | Current Version | All | Text Only | Save Text | Print | Product List | Glossary Off

Skip product version selection by date and time.   

157
ASUS44 KMAF 301210
RWRMAF
MIDLAND AREA WEATHER ROUNDUP
NATIONAL WEATHER SERVICE MIDLAND TX
700 AM CDT SAT MAY 30 2015

...IN SOUTHWEST TEXAS AND SOUTHEAST NEW MEXICO...

CITY           SKY/WX    TMP DP  RH WIND       PRES   REMARKS
ALPINE         CLOUDY    64  62  92 N10       30.24R
ANDREWS        RAIN      59  58  96 N14       30.25R
ARTESIA        CLOUDY    59  59 100 N9        30.22R
BIG SPRING     PTCLDY    61  56  84 NW5       30.19R
CARLSBAD       CLOUDY    61  55  81 W7        30.18R
DRYDEN           N/A     71  61  70 NE8       30.06R
FORT STOCKTON  CLOUDY    64  56  75 N21G32    30.19R
GUAD PASS      CLOUDY    51  50  96 NE33      30.23R FOG
HOBBS          TSTM      59  57  94 E20       30.16F
MARFA          MOCLDY    63  55  77 NE15      30.18R
MIDLAND AIRPK  LGT RAIN  63  58  82 NW13G18   30.22R
MIDLAND INTL   LGT RAIN  62  57  83 NW20G28   30.22R
ODESSA         TSTM      61  56  83 N22G29    30.22R
PECOS          CLOUDY    59  55  85 CALM      30.18F THUNDER
PRESIDIO       FAIR      76  52  42 N9        30.00R
SEMINOLE       RAIN      58  56  91 CALM      30.27R
SNYDER         MOCLDY    60  57  91 NW5       30.16R
WINK           LGT RAIN  61  55  81 NE22G29   30.18R
$$
...OTHER STATIONS IN TEXAS...

CITY           SKY/WX    TMP DP  RH WIND       PRES   REMARKS
ABILENE        CLOUDY    62  60  93 CALM      30.06R
AMARILLO       CLOUDY    54  49  83 N15       30.25R
AUSTIN         CLOUDY    71  71 100 W5        30.04R
BROWNSVILLE    CLOUDY    75  73  93 SE3       29.95R FOG
CORPUS CHRISTI MOCLDY    75  73  93 CALM      29.98R
DALLAS FTW     TSTM      65  65 100 NW25G32   30.02R SQUALL
DEL RIO        LGT RAIN  75  72  90 E9        29.99S
EL PASO        MOCLDY    68  47  46 N13       30.08R
HOUSTON INT    PTCLDY    73  72  96 CALM      30.00S
LUBBOCK        CLOUDY    58  55  90 N3        30.20R
SAN ANGELO     PTCLDY    64  60  87 CALM      30.08R
SAN ANTONIO    CLOUDY    75  71  87 NW8       30.05R
WACO           TSTM      65  64  97 N17G28    30.06R FOG
WICHITA FALLS  NOT AVBL
$$
...OTHER LOCATIONS IN NEW MEXICO...

CITY           SKY/WX    TMP DP  RH WIND       PRES   REMARKS
ALAMAGORDO     CLEAR     57  34  41 S8        30.12R
ALBUQUERQUE    PTCLDY    59  45  59 E17G25    30.26R
CANNON AFB     CLOUDY    54  51  89 NE14G21   30.26R
CLOVIS         CLOUDY    54  50  87 N13G18    30.27R
HOLLOMAN AFB   CLEAR     58  41  53 SE7       30.10R
ROSWELL        CLOUDY    60  53  77 N13       30.20R
RUIDOSO        CLEAR     48  43  81 S9        30.36R
SANTA FE       CLEAR     50  42  74 S7        30.31R
TRUTH OR CONSE CLEAR     63  44  50 NE10G24   30.18R
TUCUMCARI      CLOUDY    55  52  89 NE3       30.28R
$$

USA.gov is the U.S. government's official web portal to all federal, state and local government web resources and services.